Zurück zum Katalog

COSMOS 1249 COOLANT

AktivLEO
NORAD 26508·DEBRIS·🇷🇺 Russia

Gestartet Mar 5, 1981 von Baikonur Cosmodrome

Loading…

Nächste Überflüge (nächste 24 Stunden)

TLE

AlterndSource: Space-Track

Epoche: Sep 11, 2026, 03:28 UTC

1 26508U 81021K   26254.14468840  .00000050  00000-0  10851-3 0  9990
2 26508  64.9649  75.7547 0056847 220.8092 253.9083 13.92279453670636

Verfolge COSMOS 1249 COOLANT in Echtzeit mit AllMySat

Download on the App Store